User: anonymous   Login
Location: Lincolnton
(35.4660°N, 81.2500°W)
Time: 18:09:01
(UTC-05:00)
Language:

Hubble Space Telescope - Orbit

View from above orbital plane
View from above orbital plane
View from above satellite
View from above satellite

Ground track
Ground track

The orbit data is extracted from the following two-line orbital elements,

1 20580U 90037B   16045.21955913  .00002268  00000-0  13195-3 0  9995
2 20580  28.4710 357.2636 0002443 310.3646  49.6751 15.08152720216379
Epoch (UTC): 14 February 2016 05:16:09
Eccentricity: 0.0002443
inclination: 28.4710°
perigee height: 540 km
apogee height: 543 km
right ascension of ascending node: 357.2636°
argument of perigee: 310.3646°
revolutions per day: 15.08152720
mean anomaly at epoch: 49.6751°
orbit number at epoch: 21637

The dashed part of the orbit path shows where the satellite is in the earth's shadow,  

DLR